STARLINK-2396, 47815

Orbit data source: Space-Track

STARLINK-2396, 47815 is a payload satellite owned by SpaceX/Seattle (US) in LEO that was launched on Thu, 11 Mar 2021 UTC via an FALCON 9 launch vehicle from the Air Force Eastern Test Range (AFETR). Payload-class satellites include a variety of spacecraft equipped with specific instruments for various scientific and technological missions. These include communications satellites like Starlink; space stations such as the ISS; scientific satellites like the Hubble; Earth observation satellites from companies like Planet Labs, Umbra, and HawkEye 360; GPS; miniature CubeSats for education and research; and military/defense satellites.

Loading next visibility...
Identifier
47815, 2021-018AE
Orbit
LEO
Country
Flag of USUS
Related business
Manufacturer
SpaceX/Seattle
Mission
Operational Commercial Communications
Bus & Motor
STARLINK, Unknown motor
Mass
260 kg wet, ~248 kg dry
Launch date (UTC)
2021-03-11 (5 years ago)
Launch vehicle
FALCON 9
Launch site
Air Force Eastern Test Range (AFETR)
Object type
Payload
Rocket body
Debris
Shape & HBR
Box + 1 Pan, 10.1 m
Radar Cross Section
13.562 m², Large (>1 m²)

Expand to show TLE details & history
Last TLE update: 11 hours ago

TLE from 11 hours ago
0 STARLINK-2396
1 47815U 21018AE  25292.92970909  .00005617  00000-0  39557-3 0  9993
2 47815  53.0522 158.5172 0001344  91.1504 268.9639 15.06407805255444
Epoch: 2025-10-19T22:18Z
TLE epoch observation values (Epoch: 2025-10-19T22:18:46.865Z)
Latitude
-0.00001°
Longitude
155.1826°
Altitude
548.084 km
Speed
7.589 km/s
True Right ascension
10h 34m 04s
True Declination
0° 00' 00"
Sunlit
Object was in daylight at epoch
Visualization orbit readout
Latitude
Unknown
Longitude
Unknown
Altitude
Unknown
Speed
Unknown
Apparent Right ascension
Unknown
Apparent Declination
Unknown
Sunlit
N/A
Visualization observer readout
Local Sidereal Time
04:22:30
Azimuth
Unknown
Elevation
Unknown
Doppler factor
Unknown
Orbital elements
Apogee altitude
548.39 km
Perigee altitude
546.528 km
Semi-major axis
6,925.596 km
Eccentricity
0.00013
Inclination
53.0522°
RAAN
158.5172°
Arg. of periapsis
91.1504°
True anomaly
268.9485°
Mean anomaly
268.9639°
Eccentric anomaly
268.9562°
Mean motion
3.7658 °/min
Orbital period
95.6 mins
BSTAR
0.00039557
Loading maneuver chart data...
Computing Atmospheric mass density...
Loading historical data...
Loading historical data...
Loading historical data...
Loading historical data...
Loading historical data...
Loading historical data...
Loading historical data...

Documentation

Showing up to 5 results
|